N6WT Weather Reports


time (UTC)temp
F
wind
direction
speed
knots
gust
knots
rain 1hr
in
rain 24hr
in
rain mn
in
humidity
%
barometer
mb
20260503224559 63 108 6.1 17.4 0.00 0.00 0.00 56 1013.5
20260503224058 63 23 2.6 7.8 0.00 0.00 0.00 57 1013.5
20260503223558 62 76 2.6 9.6 0.00 0.00 0.00 58 1013.6
20260503223058 62 230 5.2 9.6 0.00 0.00 0.00 57 1013.7
20260503222557 63 269 4.3 9.6 0.00 0.00 0.00 55 1013.7
20260503222057 63 39 1.7 13.9 0.00 0.00 0.00 57 1013.7
20260503221558 63 148 3.5 13.9 0.00 0.00 0.00 59 1013.8
20260503221101 63 146 4.3 10.4 0.00 0.00 0.00 57 1013.9
20260503220559 63 268 1.7 12.2 0.00 0.00 0.00 57 1013.9
20260503215557 63 256 4.3 12.2 0.00 0.00 0.00 56 1013.8
20260503215055 63 65 2.6 8.7 0.00 0.00 0.00 56 1013.8
20260503214558 64 122 0.9 8.7 0.00 0.00 0.00 56 1013.9
20260503214059 64 214 3.5 8.7 0.00 0.00 0.00 56 1013.8
20260503213555 63 138 3.5 8.7 0.00 0.00 0.00 56 1013.8
20260503213125 63 103 3.5 8.7 0.00 0.00 0.00 57 1013.9
20260503212558 63 82 2.6 9.6 0.00 0.00 0.00 56 1013.9
20260503212058 63 213 3.5 9.6 0.00 0.00 0.00 57 1013.7
20260503211619 63 102 1.7 13.9 0.00 0.00 0.00 58 1013.8
20260503211054 63 115 4.3 13.9 0.00 0.00 0.00 58 1014.0
20260503210654 62 159 4.3 9.6 0.00 0.00 0.00 60 1013.9
20260503210054 62 309 1.7 10.4 0.00 0.00 0.00 59 1014.0
20260503205554 62 127 3.5 10.4 0.00 0.00 0.00 58 1014.0
20260503205054 63 232 0.9 9.6 0.00 0.00 0.00 57 1014.0
20260503204604 63 290 3.5 8.7 0.00 0.00 0.00 58 1014.1
20260503204052 63 107 5.2 12.2 0.00 0.00 0.00 57 1014.0
20260503203552 63 217 3.5 12.2 0.00 0.00 0.00 57 1014.1
20260503203057 63 63 2.6 10.4 0.00 0.00 0.00 59 1014.1
20260503202553 62 227 3.5 10.4 0.00 0.00 0.00 56 1014.2
20260503202055 63 136 0.9 16.5 0.00 0.00 0.00 57 1014.2
20260503201552 63 160 10.4 16.5 0.00 0.00 0.00 56 1014.2
20260503201051 63 258 2.6 10.4 0.00 0.00 0.00 57 1014.2
20260503200550 62 236 4.3 14.8 0.00 0.00 0.00 57 1014.3
20260503200051 62 129 10.4 14.8 0.00 0.00 0.00 59 1014.2
20260503195549 61 148 6.1 11.3 0.00 0.00 0.00 59 1014.4
20260503195048 62 127 5.2 11.3 0.00 0.00 0.00 59 1014.5
20260503194648 62 139 4.3 11.3 0.00 0.00 0.00 60 1014.4
20260503194047 61 195 3.5 7.8 0.00 0.00 0.00 59 1014.5
20260503193546 61 155 2.6 7.8 0.00 0.00 0.00 59 1014.6
20260503193046 61 342 0.9 8.7 0.00 0.00 0.00 60 1014.5
20260503192546 60 258 2.6 8.7 0.00 0.00 0.00 60 1014.5
20260503192045 61 243 2.6 7.0 0.00 0.00 0.00 62 1014.6
20260503191600 61 319 4.3 7.8 0.00 0.00 0.00 60 1014.7
20260503191042 61 110 4.3 8.7 0.00 0.00 0.00 63 1014.7
20260503190542 60 162 2.6 7.0 0.00 0.00 0.00 64 1014.8
20260503190043 59 132 2.6 7.0 0.00 0.00 0.00 64 1014.8
20260503185541 59 138 2.6 7.0 0.00 0.00 0.00 64 1015.0
20260503185040 59 138 2.6 7.0 0.00 0.00 0.00 64 1015.1
20260503184553 59 169 2.6 7.0 0.00 0.00 0.00 66 1015.0
20260503184043 59 165 1.7 9.6 0.00 0.00 0.00 65 1015.1
20260503183540 60 115 7.0 9.6 0.00 0.00 0.00 65 1015.0
20260503183044 60 90 1.7 10.4 0.00 0.00 0.00 68 1015.1
20260503182536 59 185 1.7 7.0 0.00 0.00 0.00 69 1015.1
20260503182036 59 123 1.7 7.8 0.00 0.00 0.00 69 1015.2
20260503181535 58 322 2.6 7.8 0.00 0.00 0.00 71 1015.2
20260503181033 58 340 0.9 7.8 0.00 0.00 0.00 73 1015.2
20260503180534 57 260 2.6 7.0 0.00 0.00 0.00 74 1015.2
20260503180034 57 31 0.9 7.8 0.00 0.00 0.00 75 1015.2
20260503175530 57 150 4.3 9.6 0.00 0.00 0.00 74 1015.1
20260503175029 57 115 5.2 9.6 0.00 0.00 0.00 75 1015.1
20260503174538 57 219 3.5 9.6 0.00 0.00 0.00 76 1015.1
20260503174027 56 125 3.5 8.7 0.00 0.00 0.00 75 1015.2
20260503173527 56 229 1.7 8.7 0.00 0.00 0.00 76 1015.1
20260503173025 56 162 3.5 9.6 0.00 0.00 0.00 76 1015.1
20260503172524 56 122 2.6 9.6 0.00 0.00 0.00 76 1015.1
20260503172023 56 238 3.5 7.8 0.00 0.00 0.00 76 1015.0
20260503171528 56 136 3.5 7.8 0.00 0.00 0.00 77 1014.9
20260503171027 56 215 1.7 7.0 0.00 0.00 0.00 77 1014.9
20260503170522 55 231 1.7 6.1 0.00 0.00 0.00 77 1014.9
20260503151010 53 328 1.7 4.3 0.00 0.00 0.00 83 1014.2
20260503150509 53 5 1.7 3.5 0.00 0.00 0.00 84 1014.2
20260503131057 52 313 0.0 0.0 0.00 0.00 0.00 88 1013.2
20260503130557 52 313 0.0 0.0 0.00 0.00 0.00 88 1013.1
20260503110550 52 211 0.0 0.0 0.00 0.00 0.00 90 1013.0
20260503081553 52 115 0.0 0.0 0.00 0.00 0.00 90 1013.4
20260503081038 52 113 0.0 0.0 0.00 0.00 0.00 90 1013.5
20260503080541 52 113 0.0 0.0 0.00 0.00 0.00 90 1013.6
20260503072537 52 127 0.0 2.6 0.00 0.00 0.00 91 1013.6
20260503072037 52 123 0.9 2.6 0.00 0.00 0.00 90 1013.5
20260503071557 52 123 0.9 2.6 0.00 0.00 0.00 90 1013.5
20260503071036 52 92 0.0 0.9 0.00 0.00 0.00 90 1013.5
20260503070535 52 101 0.0 0.9 0.00 0.00 0.00 91 1013.4
20260503055030 52 163 0.0 0.9 0.00 0.00 0.00 90 1012.9
20260503054540 51 163 0.0 1.7 0.00 0.00 0.00 90 1013.0
20260503054032 51 163 0.0 1.7 0.00 0.00 0.00 90 1012.9
20260503053530 51 164 0.0 0.9 0.00 0.00 0.00 90 1012.8
20260503053030 51 164 0.0 0.9 0.00 0.00 0.00 90 1012.7
20260503052530 51 145 0.0 0.9 0.00 0.00 0.00 90 1012.9
20260503052030 51 145 0.0 0.9 0.00 0.00 0.00 90 1012.9
20260503051541 51 145 0.0 0.0 0.00 0.00 0.00 90 1012.8
20260503051029 51 145 0.0 0.0 0.00 0.00 0.00 90 1012.7
20260503050529 51 145 0.0 0.0 0.00 0.00 0.00 90 1012.7
20260503050029 51 145 0.0 0.9 0.00 0.00 0.00 90 1012.7
20260503045530 51 145 0.0 0.9 0.00 0.00 0.00 90 1012.6
20260503045030 51 145 0.0 1.7 0.00 0.00 0.00 90 1012.6
20260503044528 51 145 0.0 2.6 0.00 0.00 0.00 90 1012.6
20260503044027 51 145 0.0 2.6 0.00 0.00 0.00 89 1012.6
20260503043528 51 140 0.9 1.7 0.00 0.00 0.00 89 1012.4
20260503043027 51 140 0.0 3.5 0.00 0.00 0.00 89 1012.4
20260503042528 51 130 0.0 2.6 0.00 0.00 0.00 89 1012.5
20260503042027 51 222 0.0 2.6 0.00 0.00 0.00 88 1012.5
20260503041531 51 230 0.9 2.6 0.00 0.00 0.00 88 1012.5
20260503041026 51 228 0.0 1.7 0.00 0.00 0.00 88 1012.4
20260503040530 52 228 0.0 1.7 0.00 0.00 0.00 87 1012.5
20260503040026 52 228 0.0 1.7 0.00 0.00 0.00 87 1012.5
20260503035526 52 228 0.0 2.6 0.00 0.00 0.00 86 1012.4
20260503035026 52 250 0.0 2.6 0.00 0.00 0.00 85 1012.4
20260503034526 52 28 0.0 2.6 0.00 0.00 0.00 86 1012.4
20260503034025 53 250 0.9 5.2 0.00 0.00 0.00 85 1012.4
20260503033524 53 348 0.9 5.2 0.00 0.00 0.00 85 1012.3
20260503033024 53 300 0.9 3.5 0.00 0.00 0.00 84 1012.3
20260503032524 53 207 0.9 2.6 0.00 0.00 0.00 84 1012.3
20260503032024 53 360 0.9 4.3 0.00 0.00 0.00 83 1012.2
20260503031530 54 285 1.7 4.3 0.00 0.00 0.00 82 1012.1
20260503031024 54 300 0.9 2.6 0.00 0.00 0.00 82 1012.1
20260503030523 54 18 0.0 2.6 0.00 0.00 0.00 82 1012.0
20260503030028 54 342 0.9 2.6 0.00 0.00 0.00 82 1011.9
20260503025524 55 227 0.9 4.3 0.00 0.00 0.00 81 1011.8
20260503025025 55 231 0.9 6.1 0.00 0.00 0.00 81 1011.8
20260503024523 55 266 2.6 6.1 0.00 0.00 0.00 81 1011.8
20260503024023 55 306 1.7 7.8 0.00 0.00 0.00 80 1011.6
20260503023523 55 229 3.5 7.8 0.00 0.00 0.00 80 1011.5
20260503023023 56 266 1.7 7.8 0.00 0.00 0.00 80 1011.6
20260503022522 56 217 2.6 7.8 0.00 0.00 0.00 79 1011.5
20260503022024 56 213 4.3 7.8 0.00 0.00 0.00 79 1011.5
20260503021522 56 211 2.6 7.8 0.00 0.00 0.00 79 1011.5
20260503021022 57 278 2.6 7.8 0.00 0.00 0.00 78 1011.4
20260503020524 57 246 5.2 7.8 0.00 0.00 0.00 78 1011.4
20260503020022 57 262 3.5 8.7 0.00 0.00 0.00 78 1011.4
20260503015521 57 227 4.3 8.7 0.00 0.00 0.00 77 1011.4
20260503015021 58 239 3.5 7.8 0.00 0.00 0.00 77 1011.5
20260503014520 58 227 2.6 8.7 0.00 0.00 0.00 77 1011.5
20260503014020 58 263 2.6 7.0 0.00 0.00 0.00 76 1011.5
20260503013520 58 257 3.5 7.8 0.00 0.00 0.00 76 1011.5
20260503013031 59 237 4.3 7.8 0.00 0.00 0.00 76 1011.5
20260503012523 59 256 0.9 7.8 0.00 0.00 0.00 75 1011.6
20260503012020 59 231 2.6 9.6 0.00 0.00 0.00 75 1011.6
20260503011520 59 166 3.5 9.6 0.00 0.00 0.00 74 1011.7
20260503011023 60 190 3.5 7.8 0.00 0.00 0.00 73 1011.5
20260503010519 61 243 1.7 8.7 0.00 0.00 0.00 73 1011.5
20260503010019 61 201 3.5 8.7 0.00 0.00 0.00 72 1011.6
20260503005519 61 214 4.3 8.7 0.00 0.00 0.00 71 1011.6
20260503005019 61 165 4.3 9.6 0.00 0.00 0.00 72 1011.7
20260503004519 62 221 4.3 9.6 0.00 0.00 0.00 71 1011.7
20260503004018 63 222 5.2 10.4 0.00 0.00 0.00 69 1011.7
20260503003518 63 221 3.5 9.6 0.00 0.00 0.00 69 1011.6
20260503003022 63 259 2.6 10.4 0.00 0.00 0.00 69 1011.5
20260503002517 64 141 5.2 10.4 0.00 0.00 0.00 68 1011.5
20260503002018 64 253 3.5 7.8 0.00 0.00 0.00 67 1011.5
20260503001517 65 212 1.7 10.4 0.00 0.00 0.00 68 1011.4
20260503001016 64 206 4.3 10.4 0.00 0.00 0.00 67 1011.5
20260503000518 65 273 4.3 7.8 0.00 0.00 0.00 65 1011.6
20260503000020 65 244 2.6 7.8 0.00 0.00 0.00 66 1011.5
20260502235516 65 125 2.6 7.8 0.00 0.00 0.00 67 1011.6
20260502235016 65 159 3.5 7.8 0.00 0.00 0.00 68 1011.5
20260502234519 65 126 2.6 7.8 0.00 0.00 0.00 67 1011.5
20260502234015 65 244 2.6 7.8 0.00 0.00 0.00 66 1011.6
20260502233514 65 90 2.6 7.0 0.00 0.00 0.00 67 1011.5
20260502233014 65 259 2.6 9.6 0.00 0.00 0.00 67 1011.7
20260502232513 65 263 5.2 9.6 0.00 0.00 0.00 66 1011.8
20260502232012 66 165 5.2 9.6 0.00 0.00 0.00 67 1011.8
20260502231513 66 153 1.7 7.8 0.00 0.00 0.00 66 1011.9
20260502231011 66 171 3.5 7.8 0.00 0.00 0.00 66 1012.0
20260502230510 66 226 4.3 7.8 0.00 0.00 0.00 66 1012.1
20260502230010 66 219 2.6 4.3 0.00 0.00 0.00 67 1012.1
20260502225507 65 180 1.7 7.8 0.00 0.00 0.00 68 1012.1
20260502225006 65 275 4.3 9.6 0.00 0.00 0.00 67 1012.2